Datum;Tijd;Parameter;Locatie;Meting;Astronomisch getijden;Eenheid;Windrichting;Windrichting eenheid;Bemonsteringshoogte;Referentievlak;
4-10-2018;10:50:00;Waterhoogte Oppervlaktewater t.o.v. Normaal Amsterdams Peil in cm;Hoek van Holland;81;;cm;211;graden;-999999999;NAP;
4-10-2018;11:00:00;Waterhoogte Oppervlaktewater t.o.v. Normaal Amsterdams Peil in cm;Hoek van Holland;78;;cm;214;graden;-999999999;NAP;
4-10-2018;11:10:00;Waterhoogte Oppervlaktewater t.o.v. Normaal Amsterdams Peil in cm;Hoek van Holland;75;;cm;212;graden;-999999999;NAP;
4-10-2018;11:20:00;Waterhoogte Oppervlaktewater t.o.v. Normaal Amsterdams Peil in cm;Hoek van Holland;75;;cm;215;graden;-999999999;NAP;
4-10-2018;11:30:00;Waterhoogte Oppervlaktewater t.o.v. Normaal Amsterdams Peil in cm;Hoek van Holland;72;;cm;209;graden;-999999999;NAP;
4-10-2018;11:40:00;Waterhoogte Oppervlaktewater t.o.v. Normaal Amsterdams Peil in cm;Hoek van Holland;70;;cm;208;graden;-999999999;NAP;
4-10-2018;11:50:00;Waterhoogte Oppervlaktewater t.o.v. Normaal Amsterdams Peil in cm;Hoek van Holland;69;;cm;208;graden;-999999999;NAP;
4-10-2018;12:00:00;Waterhoogte Oppervlaktewater t.o.v. Normaal Amsterdams Peil in cm;Hoek van Holland;66;;cm;205;graden;-999999999;NAP;
4-10-2018;12:10:00;Waterhoogte Oppervlaktewater t.o.v. Normaal Amsterdams Peil in cm;Hoek van Holland;62;;cm;204;graden;-999999999;NAP;
4-10-2018;12:20:00;Waterhoogte Oppervlaktewater t.o.v. Normaal Amsterdams Peil in cm;Hoek van Holland;59;;cm;202;graden;-999999999;NAP;
4-10-2018;12:30:00;Waterhoogte Oppervlaktewater t.o.v. Normaal Amsterdams Peil in cm;Hoek van Holland;55;;cm;206;graden;-999999999;NAP;
4-10-2018;12:40:00;Waterhoogte Oppervlaktewater t.o.v. Normaal Amsterdams Peil in cm;Hoek van Holland;50;;cm;209;graden;-999999999;NAP;
4-10-2018;12:50:00;Waterhoogte Oppervlaktewater t.o.v. Normaal Amsterdams Peil in cm;Hoek van Holland;46;;cm;203;graden;-999999999;NAP;
4-10-2018;13:00:00;Waterhoogte Oppervlaktewater t.o.v. Normaal Amsterdams Peil in cm;Hoek van Holland;41;;cm;210;graden;-999999999;NAP;
4-10-2018;13:10:00;Waterhoogte Oppervlaktewater t.o.v. Normaal Amsterdams Peil in cm;Hoek van Holland;36;;cm;212;graden;-999999999;NAP;
4-10-2018;13:20:00;Waterhoogte Oppervlaktewater t.o.v. Normaal Amsterdams Peil in cm;Hoek van Holland;31;;cm;213;graden;-999999999;NAP;
4-10-2018;13:30:00;Waterhoogte Oppervlaktewater t.o.v. Normaal Amsterdams Peil in cm;Hoek van Holland;25;;cm;211;graden;-999999999;NAP;
4-10-2018;13:40:00;Waterhoogte Oppervlaktewater t.o.v. Normaal Amsterdams Peil in cm;Hoek van Holland;19;;cm;228;graden;-999999999;NAP;
4-10-2018;13:50:00;Waterhoogte Oppervlaktewater t.o.v. Normaal Amsterdams Peil in cm;Hoek van Holland;12;;cm;229;graden;-999999999;NAP;
4-10-2018;14:00:00;Waterhoogte Oppervlaktewater t.o.v. Normaal Amsterdams Peil in cm;Hoek van Holland;5;;cm;226;graden;-999999999;NAP;
4-10-2018;14:10:00;Waterhoogte Oppervlaktewater t.o.v. Normaal Amsterdams Peil in cm;Hoek van Holland;-1;;cm;222;graden;-999999999;NAP;
4-10-2018;14:20:00;Waterhoogte Oppervlaktewater t.o.v. Normaal Amsterdams Peil in cm;Hoek van Holland;-7;;cm;228;graden;-999999999;NAP;
4-10-2018;14:30:00;Waterhoogte Oppervlaktewater t.o.v. Normaal Amsterdams Peil in cm;Hoek van Holland;-12;;cm;227;graden;-999999999;NAP;
4-10-2018;14:40:00;Waterhoogte Oppervlaktewater t.o.v. Normaal Amsterdams Peil in cm;Hoek van Holland;-17;;cm;229;graden;-999999999;NAP;
4-10-2018;14:50:00;Waterhoogte Oppervlaktewater t.o.v. Normaal Amsterdams Peil in cm;Hoek van Holland;-21;;cm;227;graden;-999999999;NAP;
4-10-2018;15:00:00;Waterhoogte Oppervlaktewater t.o.v. Normaal Amsterdams Peil in cm;Hoek van Holland;-25;;cm;225;graden;-999999999;NAP;
4-10-2018;15:10:00;Waterhoogte Oppervlaktewater t.o.v. Normaal Amsterdams Peil in cm;Hoek van Holland;-30;;cm;226;graden;-999999999;NAP;
4-10-2018;15:20:00;Waterhoogte Oppervlaktewater t.o.v. Normaal Amsterdams Peil in cm;Hoek van Holland;-34;;cm;226;graden;-999999999;NAP;
4-10-2018;15:30:00;Waterhoogte Oppervlaktewater t.o.v. Normaal Amsterdams Peil in cm;Hoek van Holland;-39;;cm;223;graden;-999999999;NAP;
4-10-2018;15:40:00;Waterhoogte Oppervlaktewater t.o.v. Normaal Amsterdams Peil in cm;Hoek van Holland;-43;;cm;221;graden;-999999999;NAP;
4-10-2018;15:50:00;Waterhoogte Oppervlaktewater t.o.v. Normaal Amsterdams Peil in cm;Hoek van Holland;-46;;cm;226;graden;-999999999;NAP;
4-10-2018;16:00:00;Waterhoogte Oppervlaktewater t.o.v. Normaal Amsterdams Peil in cm;Hoek van Holland;-48;;cm;222;graden;-999999999;NAP;
4-10-2018;16:10:00;Waterhoogte Oppervlaktewater t.o.v. Normaal Amsterdams Peil in cm;Hoek van Holland;-49;;cm;221;graden;-999999999;NAP;
4-10-2018;16:20:00;Waterhoogte Oppervlaktewater t.o.v. Normaal Amsterdams Peil in cm;Hoek van Holland;-49;;cm;226;graden;-999999999;NAP;
4-10-2018;16:30:00;Waterhoogte Oppervlaktewater t.o.v. Normaal Amsterdams Peil in cm;Hoek van Holland;-49;;cm;224;graden;-999999999;NAP;
4-10-2018;16:40:00;Waterhoogte Oppervlaktewater t.o.v. Normaal Amsterdams Peil in cm;Hoek van Holland;-48;;cm;222;graden;-999999999;NAP;
4-10-2018;16:50:00;Waterhoogte Oppervlaktewater t.o.v. Normaal Amsterdams Peil in cm;Hoek van Holland;-48;;cm;221;graden;-999999999;NAP;
4-10-2018;17:00:00;Waterhoogte Oppervlaktewater t.o.v. Normaal Amsterdams Peil in cm;Hoek van Holland;-46;;cm;221;graden;-999999999;NAP;
4-10-2018;17:10:00;Waterhoogte Oppervlaktewater t.o.v. Normaal Amsterdams Peil in cm;Hoek van Holland;-46;;cm;222;graden;-999999999;NAP;
4-10-2018;17:20:00;Waterhoogte Oppervlaktewater t.o.v. Normaal Amsterdams Peil in cm;Hoek van Holland;-44;;cm;226;graden;-999999999;NAP;
4-10-2018;17:30:00;Waterhoogte Oppervlaktewater t.o.v. Normaal Amsterdams Peil in cm;Hoek van Holland;-45;;cm;224;graden;-999999999;NAP;
4-10-2018;17:40:00;Waterhoogte Oppervlaktewater t.o.v. Normaal Amsterdams Peil in cm;Hoek van Holland;-46;;cm;223;graden;-999999999;NAP;
4-10-2018;17:50:00;Waterhoogte Oppervlaktewater t.o.v. Normaal Amsterdams Peil in cm;Hoek van Holland;-46;;cm;219;graden;-999999999;NAP;
4-10-2018;18:00:00;Waterhoogte Oppervlaktewater t.o.v. Normaal Amsterdams Peil in cm;Hoek van Holland;-47;;cm;219;graden;-999999999;NAP;
4-10-2018;18:10:00;Waterhoogte Oppervlaktewater t.o.v. Normaal Amsterdams Peil in cm;Hoek van Holland;-48;;cm;219;graden;-999999999;NAP;
4-10-2018;18:20:00;Waterhoogte Oppervlaktewater t.o.v. Normaal Amsterdams Peil in cm;Hoek van Holland;-48;;cm;221;graden;-999999999;NAP;
4-10-2018;18:30:00;Waterhoogte Oppervlaktewater t.o.v. Normaal Amsterdams Peil in cm;Hoek van Holland;-47;;cm;218;graden;-999999999;NAP;
4-10-2018;18:40:00;Waterhoogte Oppervlaktewater t.o.v. Normaal Amsterdams Peil in cm;Hoek van Holland;-46;;cm;217;graden;-999999999;NAP;
4-10-2018;18:50:00;Waterhoogte Oppervlaktewater t.o.v. Normaal Amsterdams Peil in cm;Hoek van Holland;-46;;cm;216;graden;-999999999;NAP;
4-10-2018;19:00:00;Waterhoogte Oppervlaktewater t.o.v. Normaal Amsterdams Peil in cm;Hoek van Holland;-45;;cm;215;graden;-999999999;NAP;
4-10-2018;19:10:00;Waterhoogte Oppervlaktewater t.o.v. Normaal Amsterdams Peil in cm;Hoek van Holland;-44;;cm;216;graden;-999999999;NAP;
4-10-2018;19:20:00;Waterhoogte Oppervlaktewater t.o.v. Normaal Amsterdams Peil in cm;Hoek van Holland;-42;;cm;213;graden;-999999999;NAP;
4-10-2018;19:30:00;Waterhoogte Oppervlaktewater t.o.v. Normaal Amsterdams Peil in cm;Hoek van Holland;-41;;cm;211;graden;-999999999;NAP;
4-10-2018;19:40:00;Waterhoogte Oppervlaktewater t.o.v. Normaal Amsterdams Peil in cm;Hoek van Holland;-38;;cm;204;graden;-999999999;NAP;
4-10-2018;19:50:00;Waterhoogte Oppervlaktewater t.o.v. Normaal Amsterdams Peil in cm;Hoek van Holland;-34;;cm;196;graden;-999999999;NAP;
4-10-2018;20:00:00;Waterhoogte Oppervlaktewater t.o.v. Normaal Amsterdams Peil in cm;Hoek van Holland;-31;;cm;194;graden;-999999999;NAP;
4-10-2018;20:10:00;Waterhoogte Oppervlaktewater t.o.v. Normaal Amsterdams Peil in cm;Hoek van Holland;-27;;cm;196;graden;-999999999;NAP;
4-10-2018;20:20:00;Waterhoogte Oppervlaktewater t.o.v. Normaal Amsterdams Peil in cm;Hoek van Holland;-22;;cm;193;graden;-999999999;NAP;
4-10-2018;20:30:00;Waterhoogte Oppervlaktewater t.o.v. Normaal Amsterdams Peil in cm;Hoek van Holland;-17;;cm;199;graden;-999999999;NAP;
4-10-2018;20:40:00;Waterhoogte Oppervlaktewater t.o.v. Normaal Amsterdams Peil in cm;Hoek van Holland;-11;;cm;193;graden;-999999999;NAP;
4-10-2018;20:50:00;Waterhoogte Oppervlaktewater t.o.v. Normaal Amsterdams Peil in cm;Hoek van Holland;-5;;cm;200;graden;-999999999;NAP;
4-10-2018;21:00:00;Waterhoogte Oppervlaktewater t.o.v. Normaal Amsterdams Peil in cm;Hoek van Holland;4;;cm;203;graden;-999999999;NAP;
4-10-2018;21:10:00;Waterhoogte Oppervlaktewater t.o.v. Normaal Amsterdams Peil in cm;Hoek van Holland;10;;cm;185;graden;-999999999;NAP;
4-10-2018;21:20:00;Waterhoogte Oppervlaktewater t.o.v. Normaal Amsterdams Peil in cm;Hoek van Holland;21;;cm;179;graden;-999999999;NAP;
4-10-2018;21:30:00;Waterhoogte Oppervlaktewater t.o.v. Normaal Amsterdams Peil in cm;Hoek van Holland;29;;cm;180;graden;-999999999;NAP;
4-10-2018;21:40:00;Waterhoogte Oppervlaktewater t.o.v. Normaal Amsterdams Peil in cm;Hoek van Holland;40;;cm;186;graden;-999999999;NAP;
4-10-2018;21:50:00;Waterhoogte Oppervlaktewater t.o.v. Normaal Amsterdams Peil in cm;Hoek van Holland;51;;cm;189;graden;-999999999;NAP;
4-10-2018;22:00:00;Waterhoogte Oppervlaktewater t.o.v. Normaal Amsterdams Peil in cm;Hoek van Holland;62;;cm;188;graden;-999999999;NAP;
4-10-2018;22:10:00;Waterhoogte Oppervlaktewater t.o.v. Normaal Amsterdams Peil in cm;Hoek van Holland;72;;cm;184;graden;-999999999;NAP;
4-10-2018;22:20:00;Waterhoogte Oppervlaktewater t.o.v. Normaal Amsterdams Peil in cm;Hoek van Holland;82;;cm;184;graden;-999999999;NAP;
4-10-2018;22:30:00;Waterhoogte Oppervlaktewater t.o.v. Normaal Amsterdams Peil in cm;Hoek van Holland;90;;cm;191;graden;-999999999;NAP;
4-10-2018;22:40:00;Waterhoogte Oppervlaktewater t.o.v. Normaal Amsterdams Peil in cm;Hoek van Holland;96;;cm;190;graden;-999999999;NAP;
4-10-2018;22:50:00;Waterhoogte Oppervlaktewater t.o.v. Normaal Amsterdams Peil in cm;Hoek van Holland;102;;cm;188;graden;-999999999;NAP;
4-10-2018;23:00:00;Waterhoogte Oppervlaktewater t.o.v. Normaal Amsterdams Peil in cm;Hoek van Holland;104;;cm;187;graden;-999999999;NAP;
4-10-2018;23:10:00;Waterhoogte Oppervlaktewater t.o.v. Normaal Amsterdams Peil in cm;Hoek van Holland;106;;cm;186;graden;-999999999;NAP;
4-10-2018;23:20:00;Waterhoogte Oppervlaktewater t.o.v. Normaal Amsterdams Peil in cm;Hoek van Holland;106;;cm;187;graden;-999999999;NAP;
4-10-2018;23:30:00;Waterhoogte Oppervlaktewater t.o.v. Normaal Amsterdams Peil in cm;Hoek van Holland;104;;cm;184;graden;-999999999;NAP;
4-10-2018;23:40:00;Waterhoogte Oppervlaktewater t.o.v. Normaal Amsterdams Peil in cm;Hoek van Holland;104;;cm;185;graden;-999999999;NAP;
4-10-2018;23:50:00;Waterhoogte Oppervlaktewater t.o.v. Normaal Amsterdams Peil in cm;Hoek van Holland;102;;cm;183;graden;-999999999;NAP;
5-10-2018;00:00:00;Waterhoogte Oppervlaktewater t.o.v. Normaal Amsterdams Peil in cm;Hoek van Holland;100;;cm;186;graden;-999999999;NAP;
5-10-2018;00:10:00;Waterhoogte Oppervlaktewater t.o.v. Normaal Amsterdams Peil in cm;Hoek van Holland;98;;cm;186;graden;-999999999;NAP;
5-10-2018;00:20:00;Waterhoogte Oppervlaktewater t.o.v. Normaal Amsterdams Peil in cm;Hoek van Holland;96;;cm;181;graden;-999999999;NAP;
5-10-2018;00:30:00;Waterhoogte Oppervlaktewater t.o.v. Normaal Amsterdams Peil in cm;Hoek van Holland;93;;cm;183;graden;-999999999;NAP;
5-10-2018;00:40:00;Waterhoogte Oppervlaktewater t.o.v. Normaal Amsterdams Peil in cm;Hoek van Holland;92;;cm;187;graden;-999999999;NAP;
5-10-2018;00:50:00;Waterhoogte Oppervlaktewater t.o.v. Normaal Amsterdams Peil in cm;Hoek van Holland;88;;cm;186;graden;-999999999;NAP;
5-10-2018;01:00:00;Waterhoogte Oppervlaktewater t.o.v. Normaal Amsterdams Peil in cm;Hoek van Holland;84;;cm;192;graden;-999999999;NAP;
5-10-2018;01:10:00;Waterhoogte Oppervlaktewater t.o.v. Normaal Amsterdams Peil in cm;Hoek van Holland;80;;cm;192;graden;-999999999;NAP;
5-10-2018;01:20:00;Waterhoogte Oppervlaktewater t.o.v. Normaal Amsterdams Peil in cm;Hoek van Holland;75;;cm;186;graden;-999999999;NAP;
5-10-2018;01:30:00;Waterhoogte Oppervlaktewater t.o.v. Normaal Amsterdams Peil in cm;Hoek van Holland;70;;cm;185;graden;-999999999;NAP;
5-10-2018;01:40:00;Waterhoogte Oppervlaktewater t.o.v. Normaal Amsterdams Peil in cm;Hoek van Holland;65;;cm;181;graden;-999999999;NAP;
5-10-2018;01:50:00;Waterhoogte Oppervlaktewater t.o.v. Normaal Amsterdams Peil in cm;Hoek van Holland;59;;cm;181;graden;-999999999;NAP;
5-10-2018;02:00:00;Waterhoogte Oppervlaktewater t.o.v. Normaal Amsterdams Peil in cm;Hoek van Holland;54;;cm;180;graden;-999999999;NAP;
5-10-2018;02:10:00;Waterhoogte Oppervlaktewater t.o.v. Normaal Amsterdams Peil in cm;Hoek van Holland;48;;cm;178;graden;-999999999;NAP;
5-10-2018;02:20:00;Waterhoogte Oppervlaktewater t.o.v. Normaal Amsterdams Peil in cm;Hoek van Holland;41;;cm;180;graden;-999999999;NAP;
5-10-2018;02:30:00;Waterhoogte Oppervlaktewater t.o.v. Normaal Amsterdams Peil in cm;Hoek van Holland;35;;cm;182;graden;-999999999;NAP;
5-10-2018;02:40:00;Waterhoogte Oppervlaktewater t.o.v. Normaal Amsterdams Peil in cm;Hoek van Holland;29;;cm;185;graden;-999999999;NAP;
5-10-2018;02:50:00;Waterhoogte Oppervlaktewater t.o.v. Normaal Amsterdams Peil in cm;Hoek van Holland;20;;cm;185;graden;-999999999;NAP;
5-10-2018;03:00:00;Waterhoogte Oppervlaktewater t.o.v. Normaal Amsterdams Peil in cm;Hoek van Holland;14;;cm;183;graden;-999999999;NAP;
5-10-2018;03:10:00;Waterhoogte Oppervlaktewater t.o.v. Normaal Amsterdams Peil in cm;Hoek van Holland;8;;cm;183;graden;-999999999;NAP;
5-10-2018;03:20:00;Waterhoogte Oppervlaktewater t.o.v. Normaal Amsterdams Peil in cm;Hoek van Holland;0;;cm;182;graden;-999999999;NAP;
5-10-2018;03:30:00;Waterhoogte Oppervlaktewater t.o.v. Normaal Amsterdams Peil in cm;Hoek van Holland;-5;;cm;182;graden;-999999999;NAP;
5-10-2018;03:40:00;Waterhoogte Oppervlaktewater t.o.v. Normaal Amsterdams Peil in cm;Hoek van Holland;-11;;cm;183;graden;-999999999;NAP;
5-10-2018;03:50:00;Waterhoogte Oppervlaktewater t.o.v. Normaal Amsterdams Peil in cm;Hoek van Holland;-16;;cm;182;graden;-999999999;NAP;
5-10-2018;04:00:00;Waterhoogte Oppervlaktewater t.o.v. Normaal Amsterdams Peil in cm;Hoek van Holland;-20;;cm;177;graden;-999999999;NAP;
5-10-2018;04:10:00;Waterhoogte Oppervlaktewater t.o.v. Normaal Amsterdams Peil in cm;Hoek van Holland;-25;;cm;178;graden;-999999999;NAP;
5-10-2018;04:20:00;Waterhoogte Oppervlaktewater t.o.v. Normaal Amsterdams Peil in cm;Hoek van Holland;-29;;cm;182;graden;-999999999;NAP;
5-10-2018;04:30:00;Waterhoogte Oppervlaktewater t.o.v. Normaal Amsterdams Peil in cm;Hoek van Holland;-33;;cm;182;graden;-999999999;NAP;
5-10-2018;04:40:00;Waterhoogte Oppervlaktewater t.o.v. Normaal Amsterdams Peil in cm;Hoek van Holland;-35;;cm;182;graden;-999999999;NAP;
5-10-2018;04:50:00;Waterhoogte Oppervlaktewater t.o.v. Normaal Amsterdams Peil in cm;Hoek van Holland;-37;;cm;181;graden;-999999999;NAP;
5-10-2018;05:00:00;Waterhoogte Oppervlaktewater t.o.v. Normaal Amsterdams Peil in cm;Hoek van Holland;-41;;cm;182;graden;-999999999;NAP;
5-10-2018;05:10:00;Waterhoogte Oppervlaktewater t.o.v. Normaal Amsterdams Peil in cm;Hoek van Holland;-40;;cm;183;graden;-999999999;NAP;
5-10-2018;05:20:00;Waterhoogte Oppervlaktewater t.o.v. Normaal Amsterdams Peil in cm;Hoek van Holland;-41;;cm;181;graden;-999999999;NAP;
5-10-2018;05:30:00;Waterhoogte Oppervlaktewater t.o.v. Normaal Amsterdams Peil in cm;Hoek van Holland;-41;;cm;180;graden;-999999999;NAP;
5-10-2018;05:40:00;Waterhoogte Oppervlaktewater t.o.v. Normaal Amsterdams Peil in cm;Hoek van Holland;-39;;cm;179;graden;-999999999;NAP;
5-10-2018;05:50:00;Waterhoogte Oppervlaktewater t.o.v. Normaal Amsterdams Peil in cm;Hoek van Holland;-38;;cm;184;graden;-999999999;NAP;
5-10-2018;06:00:00;Waterhoogte Oppervlaktewater t.o.v. Normaal Amsterdams Peil in cm;Hoek van Holland;-38;;cm;183;graden;-999999999;NAP;
5-10-2018;06:10:00;Waterhoogte Oppervlaktewater t.o.v. Normaal Amsterdams Peil in cm;Hoek van Holland;-36;;cm;183;graden;-999999999;NAP;
5-10-2018;06:20:00;Waterhoogte Oppervlaktewater t.o.v. Normaal Amsterdams Peil in cm;Hoek van Holland;-34;;cm;180;graden;-999999999;NAP;
5-10-2018;06:30:00;Waterhoogte Oppervlaktewater t.o.v. Normaal Amsterdams Peil in cm;Hoek van Holland;-37;;cm;177;graden;-999999999;NAP;
5-10-2018;06:40:00;Waterhoogte Oppervlaktewater t.o.v. Normaal Amsterdams Peil in cm;Hoek van Holland;-35;;cm;177;graden;-999999999;NAP;
5-10-2018;06:50:00;Waterhoogte Oppervlaktewater t.o.v. Normaal Amsterdams Peil in cm;Hoek van Holland;-36;;cm;177;graden;-999999999;NAP;
5-10-2018;07:00:00;Waterhoogte Oppervlaktewater t.o.v. Normaal Amsterdams Peil in cm;Hoek van Holland;-39;;cm;177;graden;-999999999;NAP;
5-10-2018;07:10:00;Waterhoogte Oppervlaktewater t.o.v. Normaal Amsterdams Peil in cm;Hoek van Holland;-38;;cm;176;graden;-999999999;NAP;
5-10-2018;07:20:00;Waterhoogte Oppervlaktewater t.o.v. Normaal Amsterdams Peil in cm;Hoek van Holland;-38;;cm;175;graden;-999999999;NAP;
5-10-2018;07:30:00;Waterhoogte Oppervlaktewater t.o.v. Normaal Amsterdams Peil in cm;Hoek van Holland;-38;;cm;176;graden;-999999999;NAP;
5-10-2018;07:40:00;Waterhoogte Oppervlaktewater t.o.v. Normaal Amsterdams Peil in cm;Hoek van Holland;-36;;cm;178;graden;-999999999;NAP;
5-10-2018;07:50:00;Waterhoogte Oppervlaktewater t.o.v. Normaal Amsterdams Peil in cm;Hoek van Holland;-35;;cm;177;graden;-999999999;NAP;
5-10-2018;08:00:00;Waterhoogte Oppervlaktewater t.o.v. Normaal Amsterdams Peil in cm;Hoek van Holland;-33;;cm;176;graden;-999999999;NAP;
5-10-2018;08:10:00;Waterhoogte Oppervlaktewater t.o.v. Normaal Amsterdams Peil in cm;Hoek van Holland;-30;;cm;179;graden;-999999999;NAP;
5-10-2018;08:20:00;Waterhoogte Oppervlaktewater t.o.v. Normaal Amsterdams Peil in cm;Hoek van Holland;-30;;cm;178;graden;-999999999;NAP;
5-10-2018;08:30:00;Waterhoogte Oppervlaktewater t.o.v. Normaal Amsterdams Peil in cm;Hoek van Holland;-27;;cm;181;graden;-999999999;NAP;
5-10-2018;08:40:00;Waterhoogte Oppervlaktewater t.o.v. Normaal Amsterdams Peil in cm;Hoek van Holland;-24;;cm;182;graden;-999999999;NAP;
5-10-2018;08:50:00;Waterhoogte Oppervlaktewater t.o.v. Normaal Amsterdams Peil in cm;Hoek van Holland;-22;;cm;180;graden;-999999999;NAP;
5-10-2018;09:00:00;Waterhoogte Oppervlaktewater t.o.v. Normaal Amsterdams Peil in cm;Hoek van Holland;-19;;cm;182;graden;-999999999;NAP;
5-10-2018;09:10:00;Waterhoogte Oppervlaktewater t.o.v. Normaal Amsterdams Peil in cm;Hoek van Holland;-16;;cm;181;graden;-999999999;NAP;
5-10-2018;09:20:00;Waterhoogte Oppervlaktewater t.o.v. Normaal Amsterdams Peil in cm;Hoek van Holland;-12;;cm;179;graden;-999999999;NAP;
5-10-2018;09:30:00;Waterhoogte Oppervlaktewater t.o.v. Normaal Amsterdams Peil in cm;Hoek van Holland;-8;;cm;177;graden;-999999999;NAP;
5-10-2018;09:40:00;Waterhoogte Oppervlaktewater t.o.v. Normaal Amsterdams Peil in cm;Hoek van Holland;-4;;cm;174;graden;-999999999;NAP;
5-10-2018;09:50:00;Waterhoogte Oppervlaktewater t.o.v. Normaal Amsterdams Peil in cm;Hoek van Holland;2;;cm;171;graden;-999999999;NAP;
5-10-2018;10:00:00;Waterhoogte Oppervlaktewater t.o.v. Normaal Amsterdams Peil in cm;Hoek van Holland;8;;cm;170;graden;-999999999;NAP;
5-10-2018;10:10:00;Waterhoogte Oppervlaktewater t.o.v. Normaal Amsterdams Peil in cm;Hoek van Holland;16;;cm;175;graden;-999999999;NAP;
5-10-2018;10:20:00;Waterhoogte Oppervlaktewater t.o.v. Normaal Amsterdams Peil in cm;Hoek van Holland;23;;cm;174;graden;-999999999;NAP;
5-10-2018;10:30:00;Waterhoogte Oppervlaktewater t.o.v. Normaal Amsterdams Peil in cm;Hoek van Holland;30;;cm;172;graden;-999999999;NAP;
5-10-2018;10:40:00;Waterhoogte Oppervlaktewater t.o.v. Normaal Amsterdams Peil in cm;Hoek van Holland;39;;cm;173;graden;-999999999;NAP;
5-10-2018;10:50:00;Waterhoogte Oppervlaktewater t.o.v. Normaal Amsterdams Peil in cm;Hoek van Holland;47;;cm;170;graden;-999999999;NAP;
5-10-2018;11:00:00;Waterhoogte Oppervlaktewater t.o.v. Normaal Amsterdams Peil in cm;Hoek van Holland;56;;cm;170;graden;-999999999;NAP;
5-10-2018;11:10:00;Waterhoogte Oppervlaktewater t.o.v. Normaal Amsterdams Peil in cm;Hoek van Holland;65;;cm;173;graden;-999999999;NAP;
5-10-2018;11:20:00;Waterhoogte Oppervlaktewater t.o.v. Normaal Amsterdams Peil in cm;Hoek van Holland;74;;cm;171;graden;-999999999;NAP;
5-10-2018;11:30:00;Waterhoogte Oppervlaktewater t.o.v. Normaal Amsterdams Peil in cm;Hoek van Holland;82;;cm;172;graden;-999999999;NAP;
5-10-2018;11:40:00;Waterhoogte Oppervlaktewater t.o.v. Normaal Amsterdams Peil in cm;Hoek van Holland;88;;cm;172;graden;-999999999;NAP;
5-10-2018;11:50:00;Waterhoogte Oppervlaktewater t.o.v. Normaal Amsterdams Peil in cm;Hoek van Holland;94;;cm;171;graden;-999999999;NAP;
5-10-2018;12:00:00;Waterhoogte Oppervlaktewater t.o.v. Normaal Amsterdams Peil in cm;Hoek van Holland;97;;cm;170;graden;-999999999;NAP;
5-10-2018;12:10:00;Waterhoogte Oppervlaktewater t.o.v. Normaal Amsterdams Peil in cm;Hoek van Holland;98;;cm;172;graden;-999999999;NAP;
5-10-2018;12:20:00;Waterhoogte Oppervlaktewater t.o.v. Normaal Amsterdams Peil in cm;Hoek van Holland;98;;cm;171;graden;-999999999;NAP;
5-10-2018;12:30:00;Waterhoogte Oppervlaktewater t.o.v. Normaal Amsterdams Peil in cm;Hoek van Holland;96;;cm;175;graden;-999999999;NAP;
5-10-2018;12:40:00;Waterhoogte Oppervlaktewater t.o.v. Normaal Amsterdams Peil in cm;Hoek van Holland;95;;cm;174;graden;-999999999;NAP;
5-10-2018;12:50:00;Waterhoogte Oppervlaktewater t.o.v. Normaal Amsterdams Peil in cm;Hoek van Holland;92;;cm;169;graden;-999999999;NAP;
5-10-2018;13:00:00;Waterhoogte Oppervlaktewater t.o.v. Normaal Amsterdams Peil in cm;Hoek van Holland;90;;cm;171;graden;-999999999;NAP;
5-10-2018;13:10:00;Waterhoogte Oppervlaktewater t.o.v. Normaal Amsterdams Peil in cm;Hoek van Holland;88;;cm;172;graden;-999999999;NAP;
5-10-2018;13:20:00;Waterhoogte Oppervlaktewater t.o.v. Normaal Amsterdams Peil in cm;Hoek van Holland;87;;cm;177;graden;-999999999;NAP;
5-10-2018;13:30:00;Waterhoogte Oppervlaktewater t.o.v. Normaal Amsterdams Peil in cm;Hoek van Holland;84;;cm;174;graden;-999999999;NAP;
5-10-2018;13:40:00;Waterhoogte Oppervlaktewater t.o.v. Normaal Amsterdams Peil in cm;Hoek van Holland;82;;cm;175;graden;-999999999;NAP;
5-10-2018;13:50:00;Waterhoogte Oppervlaktewater t.o.v. Normaal Amsterdams Peil in cm;Hoek van Holland;78;;cm;175;graden;-999999999;NAP;
5-10-2018;14:00:00;Waterhoogte Oppervlaktewater t.o.v. Normaal Amsterdams Peil in cm;Hoek van Holland;75;;cm;177;graden;-999999999;NAP;
5-10-2018;14:10:00;Waterhoogte Oppervlaktewater t.o.v. Normaal Amsterdams Peil in cm;Hoek van Holland;71;;cm;181;graden;-999999999;NAP;
5-10-2018;14:20:00;Waterhoogte Oppervlaktewater t.o.v. Normaal Amsterdams Peil in cm;Hoek van Holland;68;;cm;184;graden;-999999999;NAP;
5-10-2018;14:30:00;Waterhoogte Oppervlaktewater t.o.v. Normaal Amsterdams Peil in cm;Hoek van Holland;61;;cm;185;graden;-999999999;NAP;
5-10-2018;14:40:00;Waterhoogte Oppervlaktewater t.o.v. Normaal Amsterdams Peil in cm;Hoek van Holland;56;;cm;189;graden;-999999999;NAP;
5-10-2018;14:50:00;Waterhoogte Oppervlaktewater t.o.v. Normaal Amsterdams Peil in cm;Hoek van Holland;50;;cm;184;graden;-999999999;NAP;
5-10-2018;15:00:00;Waterhoogte Oppervlaktewater t.o.v. Normaal Amsterdams Peil in cm;Hoek van Holland;43;;cm;181;graden;-999999999;NAP;
5-10-2018;15:10:00;Waterhoogte Oppervlaktewater t.o.v. Normaal Amsterdams Peil in cm;Hoek van Holland;37;;cm;171;graden;-999999999;NAP;
5-10-2018;15:20:00;Waterhoogte Oppervlaktewater t.o.v. Normaal Amsterdams Peil in cm;Hoek van Holland;29;;cm;182;graden;-999999999;NAP;
5-10-2018;15:30:00;Waterhoogte Oppervlaktewater t.o.v. Normaal Amsterdams Peil in cm;Hoek van Holland;22;;cm;181;graden;-999999999;NAP;